< < Back
Terminal Aerodrome Forecast


Current Version              Previous Versions:   1  2  3  4  5  6  7  8  9  

Terminal Aerodrome Forecast

318
FTUS42 KGSP 302000 AAA
TAFCLT
TAF AMD
KCLT 302057Z 3021/3118 34003KT P6SM BKN050
     FM302300 VRB03KT P6SM SCT050
     FM310800 00000KT P6SM BKN045=



Latest METAR

996
SAUS70 KWBC 310500 RRB
MTRCLT
METAR KCLT 310452Z 00000KT 10SM BKN080 OVC100 22/17 A3009 RMK AO2 SLP181
T02220172 402940172


USA.gov is the U.S. government's official web portal to all federal, state and local government web resources and services.